TJS-4

Last updated on Tue Oct 08 2024 00:02:41 GMT+0000 (Coordinated Universal Time)

1 44637U 19070A 24281.39215906 -.00000160 00000+0 00000+0 0 9999 2 44637 0.0762 92.8108 0005263 223.3645 285.0634 1.00272957 18347
UTC large
Height (km)
Speed (km/s)
/
Latitude / Longitude
Inclination (degrees)
Orbital Period (minutes)
Azimuth
Elevation
Range (km)
Doppler Factor

Next 0 passes for location: London (51.5072 / 0.1276)

Sorry there are no passes over London.